Regional Weather Roundup
Issued by NWS Boston, MA

Home | Current Version | Previous Version | Text Only | Print | Product List | Glossary On
Versions: 1 2 3 4 5 6 7 8 9 10 11 12 13 14 15 16 17 18 19 20 21 22 23 24 25 26 27 28 29 30 31 32 33 34 35 36 37 38 39 40 41 42 43 44 45 46 47 48 49 50
990
ASUS41 KBOX 241710
RWRBOX

REGIONAL WEATHER ROUNDUP
NATIONAL WEATHER SERVICE BOSTON/NORTON MA
100 PM EDT THU MAY 24 2018

NOTE:  "FAIR" INDICATES FEW OR NO CLOUDS BELOW 12,000 FEET WITH NO
SIGNIFICANT WEATHER AND/OR OBSTRUCTIONS TO VISIBILITY.

MAZALL-241800-
EASTERN MASSACHUSETTS

CITY           SKY/WX    TMP DP  RH WIND       PRES   REMARKS
BOSTON         FAIR      60  53  77 E16       30.12S
BEVERLY        FAIR      59  53  80 SE14      30.11F
LAWRENCE       PTSUNNY   73  40  30 N8        30.10F
BEDFORD        FAIR      73  37  27 NW20      30.08F
BLUE HILL        N/A     70  46  42 VRB6      30.09F
NORWOOD        FAIR      75  44  33 VRB3      30.09F
MARSHFIELD     FAIR      61  52  72 E10G16    30.13S
PLYMOUTH       FAIR      68  50  52 NE8       30.11F
TAUNTON        FAIR      71  51  49 VRB5      30.09F
NEW BEDFORD    FAIR      64  52  64 S13       30.11R
$$

MAZALL-241800-
CAPE COD AND THE ISLANDS

CITY           SKY/WX    TMP DP  RH WIND       PRES   REMARKS
FALMOUTH       FAIR      61  45  55 SE16      30.14S
HYANNIS        FAIR      60  44  55 SE10      30.13R
CHATHAM        FAIR      58  46  64 E8        30.15S
PROVINCETOWN   FAIR      61  46  57 SE8       30.15S
NANTUCKET      FAIR      60  42  51 E14       30.14S
MARTHAS VNYRD  FAIR      63  49  60 SE9G16    30.13S
$$

MAZALL-241800-
CENTRAL AND WESTERN MASSACHUSETTS

CITY           SKY/WX    TMP DP  RH WIND       PRES   REMARKS
WORCESTER      FAIR      70  32  24 NW17G24   30.11F
FITCHBURG      FAIR      74  36  25 VRB7      30.09F
ORANGE         FAIR      75  24  15 NW16G25   30.11F
SPRINGFIELD    MOSUNNY   76  32  20 N13       30.09F
WESTFIELD      FAIR      77  28  16 NW20G28   30.09F
NORTH ADAMS    FAIR      70  35  27 W7        30.14F
PITTSFIELD     FAIR      71  34  25 NW8       30.13F
$$

RIZALL-241800-
RHODE ISLAND

CITY           SKY/WX    TMP DP  RH WIND       PRES   REMARKS
PROVIDENCE     FAIR      76  40  27 NE9       30.10S
NEWPORT        FAIR      65  56  72 SE12      30.11R
BLOCK ISLAND   FAIR      60  56  86 SE9       30.13S
SMITHFIELD     FAIR      73  40  30 MISG      30.10F
WESTERLY       FAIR      61  57  87 SE12      30.13R
$$

CTZALL-241800-
CONNECTICUT

CITY           SKY/WX    TMP DP  RH WIND       PRES   REMARKS
BRADLEY INTL   FAIR      78  31  17 N12G21    30.10F
HARTFORD       FAIR      78  41  26 NE10      30.09F
BRIDGEPORT     FAIR      80  35  19 N9G17     30.10F
DANBURY        FAIR      75  36  24 N14       30.14F
GROTON         FAIR      65  56  72 E13       30.11R
NEW HAVEN      FAIR      79  32  18 NW12G20   30.10F
CHESTER        FAIR      77  37  24 CALM      30.11F
MERIDEN        FAIR      78  33  19 N14       30.10F
WILLIMANTIC    FAIR      77  37  23 N10       30.10F
OXFORD         FAIR      75  38  26 N13G24    30.13F
$$

MEZ002-015-021-024-NHZ003-005-008-011-012-014-VTZ005-008-241800-
NORTHERN NEW ENGLAND

CITY           SKY/WX    TMP DP  RH WIND       PRES   REMARKS
PORTLAND ME    FAIR      58  50  75 S13G24    30.11F
BANGOR ME      PTSUNNY   61  41  47 SW12      30.07F
CONCORD NH     FAIR      72  34  24 NW12G21   30.10F
MANCHESTER NH  FAIR      75  31  19 W7        30.08F
NASHUA NH      FAIR      72  32  23 NW16G22   30.10F
PORTSMOUTH NH  MOSUNNY   61  51  70 SE13      30.10F
JAFFREY NH     FAIR      72  32  23 MISG      30.12F
KEENE NH       FAIR      74  27  17 NW9       30.12S
BURLINGTON VT  FAIR      68  28  22 CALM      30.13F
MT. WASHINGTON MOSUNNY   36  21  55 NW38G47     N/A  WCI  21
$$

NYZ052-076-241800-
EASTERN NEW YORK

CITY           SKY/WX    TMP DP  RH WIND       PRES   REMARKS
ALBANY         FAIR      75  39  27 NW12      30.12F
NEW YORK CITY  FAIR      79  35  20 NE10      30.12F
$$

ANZALL-241800-
MARINE OBSERVATIONS

STATION/POSITION TIME  TEMP    WIND        PRES    VSBY  WAVE
                       AIR SEA DIR/SP/G                  HT/PER
                 (UTC) (F)     (DEG/KT/KT) (MB)    (MI)  (FT/S)
BOSTON BUOY      1650   54 56  100/ 16/ 17 1020.0F         2/ 3
BUZZARDS BAY     1600   55     110/ 11/ 12 1020.4F
NANTUCKET SOUND  1650   53 55   90/ 12/ 14 1020.8R         1
MASS BAY-STELLWA 1604   52 56              1019.0F         2/ 3
ISLE OF SHOALS   1700   53     140/ 17/ 19 1019.4F
S OF BLOCK IS    1643      54                N/A           2/ 6
$$

......................KEY.........................
  SKY/WX - SKY CONDITION/PRESENT WEATHER
  TMP    - TEMPERATURE IN FAHRENHEIT
  DWPT   - DEWPOINT IN FAHRENHEIT
  RH     - RELATIVE HUMIDITY IN PERCENT
  WIND   - DIRECTION AND SPEED IN MPH
  PRES   - MEAN SEA LEVEL PRESSURE IN INCHES OF HG
  WCI    - WIND CHILL INDEX
  VSB    - VISIBILITY IN MILES
  HX     - HEAT INDEX
  TC     - TEMPERATURE IN CELSIUS
  VRB    - VARIABLE WIND DIRECTION
  N/A    - NOT AVAILABLE




USA.gov is the U.S. government's official web portal to all federal, state and local government web resources and services.